Location: Balmoral
(33.0667°S, 151.5833°E)
Time: 01:34:04
(UTC+00:00)

Cosmos 1437 Rocket - Pass Details

Date: 18 September 2020
Orbit: 506 x 562 km, 81.2° (Epoch: 21 October)

Event Time Altitude Azimuth Distance (km) Brightness Sun altitude
Rises 18:12:07 0° 186° (S) 2,697 6.4 -20.7°
Reaches altitude 10° 18:14:18 10° 184° (S) 1,790 5.5 -20.2°
Maximum altitude 18:18:14 72° 98° (E) 554 2.9 -19.4°
Drops below altitude 10° 18:22:02 10° 13° (NNE) 1,736 5.4 -18.6°
Sets 18:24:08 0° 11° (N) 2,608 6.3 -18.2°
